Theta_e
337 337 337 337 336 336 337 337 336 336 336 336 335 335 334 333 333 333 332 331 329 329 328 328 329 330 331 332 331 332 332 331 330 331 331 330 330 329 324 318 316 317 317 317 318 318 319 319 318 317 317 318 319 320 322 325 326 326 326 327 330 335 340 343 346 347 348 349 349 349 348 348 348 348
337 337 336 336 336 336 336 336 336 337 337 336 336 336 335 334 333 333 333 332 330 330 329 329 329 330 331 331 332 332 331 331 331 332 332 331 331 329 323 319 317 317 317 317 317 318 318 319 318 317 317 317 318 319 320 322 324 326 327 327 328 330 335 339 342 344 346 347 348 348 348 348 348 347
337 337 336 336 336 336 336 336 336 339 339 339 337 336 336 335 334 333 333 332 331 330 330 331 331 331 332 332 332 332 332 332 331 332 332 333 332 329 324 321 320 319 318 317 318 318 318 319 318 317 316 316 317 317 318 320 322 324 326 327 328 328 331 334 338 341 343 345 346 347 348 348 347 347
336 337 336 336 336 336 336 336 336 337 338 339 338 336 336 335 335 334 333 333 333 331 330 330 331 332 332 332 332 331 332 331 331 332 332 332 332 331 329 327 325 323 321 320 319 319 318 319 319 317 316 316 316 317 317 318 319 321 323 326 327 328 329 331 334 337 340 343 345 346 347 347 347 347
336 336 336 336 336 337 337 338 337 335 334 334 334 333 333 332 333 333 333 333 334 332 330 330 330 331 331 331 331 331 332 331 330 330 330 331 331 332 331 330 328 327 325 323 322 320 319 320 320 319 317 316 316 316 317 317 317 318 320 322 325 327 328 330 332 334 337 340 343 344 345 346 346 347
336 336 336 336 336 336 337 338 337 335 333 332 332 331 331 331 330 331 331 332 333 333 331 330 330 330 330 330 331 330 331 331 330 329 329 329 330 331 331 331 330 329 327 326 324 322 322 321 320 320 318 316 316 316 317 317 317 317 317 319 321 324 326 328 330 332 334 336 339 342 344 345 345 346
337 336 336 336 336 335 336 336 336 335 333 333 332 331 331 331 331 330 331 332 332 333 332 330 329 329 329 329 329 330 330 329 329 329 328 328 328 329 330 330 330 330 329 328 327 326 325 323 322 321 320 317 316 317 317 317 317 317 317 317 318 320 323 326 328 330 332 334 336 339 341 343 345 345
337 337 337 336 335 335 335 336 335 335 334 333 333 332 332 331 331 331 330 331 332 332 332 331 330 329 329 328 328 329 329 328 328 328 328 327 327 328 329 329 329 329 329 329 328 328 328 327 325 324 322 320 318 317 317 317 317 317 317 317 317 317 319 322 326 328 330 332 334 337 339 341 343 345
337 337 337 336 336 336 336 336 336 335 334 333 333 332 332 331 331 330 330 330 330 331 331 331 331 329 329 328 328 328 328 327 327 327 326 326 326 327 327 327 327 328 328 328 329 329 329 329 329 327 326 324 322 320 319 318 318 318 318 318 318 318 318 320 322 325 328 330 332 334 337 340 342 343
337 337 337 337 336 336 336 337 336 335 334 333 333 333 332 331 331 331 330 330 330 330 330 330 330 330 329 328 328 328 328 327 327 327 327 326 326 327 327 327 327 327 328 328 329 329 329 329 329 328 327 326 325 324 323 322 320 320 320 320 320 319 319 319 320 322 325 329 331 332 334 338 341 343
336 336 337 337 336 336 336 336 337 336 335 334 333 333 333 332 331 331 330 329 328 329 328 328 329 329 329 328 328 328 327 327 327 327 327 327 326 326 327 327 326 327 327 327 327 327 327 327 327 327 326 326 326 326 326 325 324 322 321 321 321 320 318 318 319 321 323 326 329 331 333 335 339 342
336 335 336 336 336 336 336 336 336 336 336 335 334 333 332 332 331 331 331 329 328 328 328 328 328 328 329 329 328 328 327 327 327 327 326 327 327 327 327 327 327 327 327 327 327 326 326 326 326 326 326 326 326 326 327 327 326 325 324 323 322 320 319 318 319 320 323 326 327 329 332 333 336 340
336 335 335 335 334 334 335 336 335 334 334 334 334 333 333 332 332 332 332 330 329 328 328 328 328 328 328 328 328 327 327 327 327 326 326 327 327 327 327 327 327 327 327 327 327 327 326 325 325 325 325 326 326 326 326 327 327 326 325 324 321 320 319 319 319 320 322 326 329 330 331 332 334 337
336 335 335 335 334 334 334 333 331 330 330 331 331 331 331 332 332 332 333 332 330 328 328 328 328 328 328 327 327 327 327 327 326 326 326 326 326 326 326 327 326 326 326 326 327 327 327 326 326 325 325 325 325 326 326 327 327 327 326 323 321 320 320 320 320 320 320 323 327 330 332 332 333 334
336 335 335 335 335 335 334 332 329 328 329 328 328 329 329 330 331 332 332 332 330 328 327 327 327 327 327 327 327 327 327 326 326 326 326 326 327 326 326 327 326 326 326 326 326 327 327 327 327 326 325 325 325 325 326 326 326 326 325 323 321 321 321 320 320 321 322 321 323 327 331 333 333 334
336 335 335 334 333 334 335 334 332 332 332 331 329 328 327 328 329 330 330 330 329 329 328 327 327 327 327 327 327 327 327 326 326 326 327 327 327 326 326 326 326 325 326 326 326 327 327 327 326 326 325 325 325 325 325 325 325 325 324 323 322 321 321 321 320 321 322 322 322 323 327 332 334 335
336 336 335 334 334 334 334 335 335 334 335 335 333 331 330 329 329 329 329 328 328 328 328 328 327 327 328 327 327 328 328 327 327 327 328 328 326 325 325 325 325 326 326 326 326 326 325 325 324 324 324 324 324 325 325 324 324 324 323 322 322 321 320 320 321 321 322 322 323 322 324 328 333 336
336 336 336 336 335 334 334 336 337 338 338 337 337 336 335 333 332 333 332 330 329 329 329 329 328 328 328 328 329 329 328 326 326 327 327 326 325 325 325 325 325 325 325 325 325 325 325 324 323 324 324 324 324 325 325 324 323 323 323 322 321 321 320 321 321 322 322 322 323 323 323 325 330 335
337 337 336 336 335 336 337 337 338 339 339 338 337 337 336 335 335 334 332 331 330 330 329 329 329 329 329 329 328 328 326 325 325 325 324 324 324 324 324 324 324 325 324 324 325 325 325 324 323 323 323 323 324 325 324 323 323 323 322 321 321 320 320 321 322 322 322 322 323 323 323 324 327 333
337 337 338 338 338 338 339 339 337 337 336 335 334 335 335 334 333 331 329 328 328 329 328 326 325 326 326 326 325 325 324 323 323 323 323 323 323 323 323 324 324 324 323 322 323 324 323 322 322 322 322 323 324 324 323 322 323 323 322 322 321 320 320 321 322 322 322 322 323 323 323 323 325 330
338 339 339 340 339 336 337 337 336 334 332 331 332 334 333 332 330 329 329 329 328 328 327 324 324 323 323 323 323 323 323 322 321 321 322 322 323 323 323 323 323 322 322 321 321 322 322 322 321 321 322 322 323 323 322 322 323 323 323 322 321 321 321 321 322 322 322 322 323 323 324 323 324 328
338 338 338 337 335 333 334 333 332 331 330 330 331 333 333 332 331 330 330 330 329 328 327 325 325 324 324 323 323 323 323 323 321 321 322 323 323 323 322 322 322 322 321 321 321 322 322 322 321 322 322 323 323 322 322 323 323 323 323 322 321 322 322 323 323 323 323 323 323 323 324 324 324 327
337 338 337 336 334 333 333 330 329 329 330 330 331 332 332 331 331 331 330 329 328 327 327 326 325 325 325 325 325 324 324 323 323 323 323 323 323 322 321 321 321 320 320 320 320 321 321 321 321 322 323 323 322 322 323 323 323 323 323 322 322 322 323 323 323 324 324 325 324 324 324 324 324 326
337 337 338 337 334 332 331 329 327 327 327 328 328 329 330 330 331 331 329 327 326 326 325 324 324 325 325 325 325 324 324 324 324 323 323 321 321 320 319 319 319 319 319 318 318 320 321 321 322 323 323 323 322 322 322 322 323 323 322 322 322 322 323 323 324 324 325 326 326 325 324 324 324 326
336 336 336 336 334 332 330 328 326 325 324 325 326 327 328 329 328 326 326 325 325 324 323 323 323 324 324 324 324 323 322 322 321 321 320 319 318 318 317 317 317 317 317 317 317 319 321 322 323 322 322 322 322 322 322 322 322 322 322 322 322 323 323 324 325 326 327 327 328 326 325 324 325 326
334 334 334 333 333 333 331 327 325 324 324 324 324 324 323 323 322 321 321 323 323 323 323 324 324 324 323 323 322 321 320 319 319 318 318 317 316 316 315 316 316 316 317 316 317 319 321 322 323 322 321 322 322 323 323 323 322 322 322 322 322 323 323 324 325 327 329 330 330 327 325 325 325 326
333 332 332 332 332 331 330 326 324 324 323 322 322 321 320 319 318 318 319 321 322 323 323 324 323 323 322 321 321 320 319 319 317 317 316 315 314 315 315 315 315 316 316 317 317 319 321 322 322 321 321 322 324 324 323 322 321 321 321 322 322 322 323 324 326 327 329 331 332 328 325 325 326 327
332 332 331 331 331 330 328 326 323 322 321 320 319 318 317 317 317 318 320 322 323 323 323 323 322 322 321 320 320 319 319 318 316 315 315 315 315 316 316 315 315 316 316 317 318 319 321 322 323 322 322 323 324 325 323 321 321 321 322 322 322 322 323 324 326 327 329 332 333 330 327 326 326 328
331 331 330 329 329 328 325 322 320 320 319 318 317 317 317 318 320 321 322 323 323 323 322 322 321 320 320 319 318 317 317 316 315 315 315 315 315 315 315 315 315 315 316 316 318 320 321 322 323 324 323 323 324 324 323 321 321 321 322 322 322 323 324 325 327 328 329 333 335 332 329 327 327 330
329 328 328 328 327 325 322 320 320 322 321 319 319 319 320 321 322 322 322 322 322 321 321 320 319 319 318 317 316 315 315 315 315 315 315 315 314 314 314 314 314 314 315 317 318 320 321 322 323 324 324 324 323 322 321 321 321 321 322 323 323 324 325 326 328 329 331 334 335 334 332 330 328 331
328 327 326 325 323 321 319 319 321 322 321 320 320 320 320 321 321 321 321 321 319 319 319 318 318 317 316 316 315 314 314 314 314 314 313 313 313 312 312 312 313 315 316 318 319 321 321 322 323 323 323 323 323 322 321 321 322 322 323 324 325 326 327 328 329 330 333 336 336 335 336 335 332 332
328 326 324 323 321 321 321 322 322 322 321 321 321 320 320 320 320 319 319 317 317 317 318 317 316 315 315 314 314 313 313 313 313 312 312 311 311 312 312 313 315 316 317 318 320 320 321 321 321 321 321 321 321 321 321 322 324 325 325 327 327 328 329 330 332 334 336 338 337 336 337 339 336 335
327 326 325 324 324 324 324 324 323 323 322 321 320 320 320 319 318 318 318 317 316 316 316 315 314 314 313 313 313 312 312 312 311 310 310 310 311 312 313 315 315 316 318 319 320 320 320 320 320 320 320 320 320 321 322 325 327 327 327 328 328 330 332 331 333 337 339 337 336 336 338 340 339 338
325 326 326 326 325 325 324 324 323 322 321 321 320 320 319 317 317 316 316 315 315 314 313 312 312 312 312 312 312 311 310 309 309 309 309 310 311 312 314 314 315 317 318 319 319 320 320 319 319 320 320 319 320 321 322 324 325 325 326 328 328 331 334 333 334 338 339 337 337 340 341 341 341 339
325 326 325 324 324 324 323 323 322 321 321 320 320 319 318 317 316 315 314 314 313 311 310 311 311 311 311 310 310 309 308 308 308 308 309 309 311 313 314 315 316 317 318 319 319 319 319 319 320 322 321 320 320 322 323 323 322 322 323 326 328 331 332 333 335 338 338 338 341 344 343 342 341 340
325 325 324 324 323 323 322 322 321 320 319 319 318 317 316 316 315 314 313 312 310 309 309 310 310 309 309 308 308 307 307 307 307 307 308 309 311 312 314 314 316 317 317 319 319 319 318 320 321 322 321 320 320 322 323 323 322 321 321 323 327 329 330 332 335 335 335 337 340 342 343 343 342 340
324 324 323 323 323 322 321 320 320 319 318 317 316 316 315 315 314 313 312 310 309 309 309 308 308 308 307 307 306 306 306 307 307 307 308 309 310 311 313 314 316 316 317 319 319 318 319 320 321 321 320 319 321 322 323 322 322 322 321 321 323 325 329 332 334 335 336 338 339 340 342 342 342 342
323 322 322 322 321 320 320 319 318 317 316 315 315 315 314 313 312 311 310 309 309 308 308 307 307 307 306 305 305 306 306 306 306 307 307 308 308 310 311 314 315 316 317 318 319 318 319 320 319 319 318 319 320 321 322 322 323 323 322 321 320 322 325 328 331 336 339 339 339 340 340 340 341 342
321 321 321 320 320 319 318 317 317 316 315 315 314 313 312 311 310 308 308 308 308 308 307 306 306 305 305 305 305 306 306 306 306 306 307 307 307 308 311 313 314 316 317 318 318 318 319 319 318 318 318 319 319 320 320 321 322 323 323 321 320 320 321 323 328 335 340 340 339 338 338 339 340 341
320 320 320 319 319 318 317 317 316 315 314 313 312 311 310 309 307 307 307 307 306 306 305 305 305 305 305 305 305 305 305 305 306 306 306 306 306 307 309 311 313 315 317 317 317 318 319 318 318 317 318 318 318 319 319 320 321 322 322 322 321 320 319 320 324 329 335 339 338 336 336 339 341 341
319 319 319 318 318 317 316 315 315 313 312 312 311 309 308 307 307 306 304 303 304 305 305 305 305 304 304 304 305 305 305 305 306 305 305 305 306 307 308 310 313 315 316 316 317 318 318 318 317 316 316 317 317 318 319 320 320 321 321 321 321 321 320 320 321 324 329 334 336 337 338 340 341 340
318 318 318 317 316 315 314 314 313 312 311 310 309 308 307 306 306 305 303 303 305 306 305 304 304 304 304 304 304 304 305 305 305 305 305 306 306 307 308 310 313 314 315 316 317 317 318 319 318 317 316 317 317 318 319 319 320 320 320 320 320 321 321 321 320 323 327 330 332 334 338 341 341 340
317 317 316 315 314 313 313 312 311 310 310 309 308 307 306 306 306 306 305 304 305 305 304 304 304 303 303 304 304 304 304 305 304 305 305 306 306 306 307 309 311 313 315 316 317 317 318 319 319 317 316 317 317 318 318 319 319 319 319 319 319 320 321 321 321 323 327 329 329 330 333 337 340 341
316 316 315 314 313 312 311 311 310 309 308 307 306 305 305 306 306 305 304 303 303 304 304 304 303 303 303 303 303 303 304 304 304 305 306 306 306 306 306 308 311 313 315 316 316 317 318 318 319 318 318 318 317 317 317 318 319 318 318 318 318 318 319 320 321 323 325 326 328 331 333 335 338 341
315 315 314 313 312 311 310 309 308 307 306 305 304 305 305 305 304 303 303 303 303 303 303 303 303 303 303 303 303 303 304 304 304 305 306 306 305 306 306 308 311 314 315 315 315 317 318 318 319 319 318 318 317 316 316 317 318 318 317 318 318 318 319 319 320 321 321 321 323 328 332 334 336 339
Wind_Speed
6 7 8 8 8 7 7 7 7 6 6 6 7 7 8 8 7 5 5 7 8 9 9 10 9 8 10 11 11 12 11 12 13 12 10 10 10 12 15 14 12 12 12 12 13 14 15 15 14 14 14 14 16 17 18 18 19 21 23 26 29 31 32 32 32 32 32 33 33 34 34 35 35 35
7 8 8 9 9 8 8 8 7 7 7 7 8 8 8 9 9 8 7 7 10 12 11 11 11 11 11 12 12 13 12 13 15 13 11 12 11 14 18 18 17 16 15 14 15 15 16 17 16 15 14 14 15 16 17 18 19 20 22 24 27 29 31 32 33 34 34 33 34 34 35 35 35 36
7 8 9 9 10 9 9 9 8 7 7 7 8 8 9 9 11 11 11 8 9 12 13 13 13 13 14 13 13 13 13 13 14 13 13 13 14 16 18 18 18 18 18 17 17 16 17 18 17 15 14 14 15 15 16 17 19 20 21 23 25 27 29 31 32 34 35 35 35 35 36 36 35 35
7 8 9 10 10 10 10 9 9 8 8 8 8 8 9 10 10 12 12 11 11 13 14 14 14 14 14 14 13 13 13 13 13 13 14 15 16 16 15 16 18 19 20 20 19 19 20 19 18 16 15 15 15 15 15 16 17 19 21 23 24 26 28 30 31 33 34 36 36 36 36 37 37 36
8 8 9 10 11 11 11 11 11 10 9 9 9 9 9 10 10 10 12 12 13 14 14 14 15 14 14 15 14 13 14 14 13 13 14 16 16 16 15 15 17 18 20 22 22 22 22 22 20 17 17 17 16 16 16 16 16 17 19 21 24 26 28 30 31 32 33 35 37 37 37 38 38 38
9 10 11 11 10 11 11 11 11 11 10 10 10 9 9 11 11 10 12 13 13 14 13 13 14 14 14 15 15 14 14 14 14 14 15 16 15 15 16 16 16 17 19 22 24 25 24 24 21 19 19 19 18 17 17 17 18 18 18 19 22 25 27 29 31 33 34 34 36 37 38 38 39 39
11 12 12 12 11 11 11 12 11 11 10 9 9 9 9 11 12 11 12 13 14 15 14 13 14 14 14 16 16 15 15 14 14 15 16 16 15 15 16 17 18 18 20 22 25 26 26 24 22 20 20 21 20 20 19 19 19 19 20 20 21 23 26 29 31 33 34 35 36 37 38 39 39 39
14 13 14 13 11 11 11 12 11 11 10 10 9 9 9 11 12 12 12 13 14 15 15 14 15 14 14 16 16 16 16 15 15 15 16 16 16 17 17 17 18 19 21 23 25 26 25 23 22 22 22 23 24 23 21 21 20 20 21 22 22 23 24 27 30 33 35 36 37 37 38 39 40 41
15 15 15 14 12 12 12 12 12 11 11 11 10 10 10 11 12 12 12 13 14 16 16 16 16 14 14 15 15 15 16 16 16 15 16 16 17 17 17 18 18 19 20 21 22 23 23 23 23 23 23 26 27 26 24 24 23 22 23 23 24 24 24 26 29 32 35 36 38 38 39 40 41 41
15 15 15 15 14 13 13 13 13 13 12 12 12 12 12 12 13 13 14 14 14 16 17 17 16 15 14 15 14 14 15 16 16 16 16 17 17 17 17 18 18 19 19 20 20 21 22 23 23 24 26 28 29 28 27 27 26 25 25 23 22 24 25 26 28 32 34 36 38 39 40 41 41 42
15 16 16 16 15 15 15 15 15 14 14 14 13 13 13 13 14 14 15 15 15 16 17 17 17 15 14 14 15 14 15 16 16 16 16 17 17 17 18 19 19 19 20 21 22 22 23 24 24 26 27 28 28 29 29 29 28 28 26 23 21 24 28 28 28 30 33 36 38 40 40 41 42 42
15 15 16 16 16 16 16 16 16 15 14 14 13 14 14 14 15 15 15 16 16 16 17 17 16 15 15 15 15 15 15 16 17 16 16 17 18 19 19 19 19 19 20 21 22 23 23 24 25 25 26 26 27 29 29 30 31 29 25 21 23 27 31 32 31 30 31 34 36 39 41 42 42 43
15 16 16 16 16 17 17 18 19 18 17 16 15 15 14 15 16 16 15 16 16 16 17 16 16 16 15 15 16 16 16 17 18 17 17 18 20 20 21 21 21 20 21 22 22 23 23 24 25 26 26 26 26 27 28 29 29 26 22 23 28 32 33 34 34 32 32 33 34 37 40 42 43 43
16 16 16 16 16 18 20 21 22 22 21 20 20 19 19 18 18 17 16 16 16 17 17 17 16 16 16 17 17 17 18 18 19 18 18 19 20 21 21 21 21 20 20 22 22 22 22 24 26 26 26 27 27 27 27 27 27 26 27 31 34 34 34 35 35 34 34 34 35 35 37 41 43 44
16 16 16 15 15 17 20 21 21 21 21 21 22 22 22 21 21 19 18 17 17 18 18 18 17 17 18 18 18 19 19 19 18 18 19 19 20 20 19 19 20 19 19 21 24 25 24 24 27 28 27 26 26 27 28 29 30 31 34 35 36 35 36 36 36 36 35 35 36 36 36 38 41 44
16 16 16 15 15 16 17 18 18 18 19 21 23 23 21 20 20 21 21 20 19 19 18 18 18 18 19 20 20 19 19 19 19 19 19 19 19 21 20 20 22 21 20 22 25 27 25 25 28 30 29 27 27 28 30 32 32 33 35 35 36 37 38 38 38 37 36 35 35 37 37 37 38 42
17 18 18 17 16 16 16 17 18 17 17 19 21 21 19 18 18 20 22 22 21 21 20 19 20 20 20 21 20 19 18 19 19 19 18 18 19 22 22 23 24 24 22 23 25 27 27 25 27 30 29 28 29 30 31 33 33 33 34 35 37 39 40 40 40 38 38 37 35 36 38 37 37 39
18 19 19 18 18 18 17 16 16 15 15 15 16 16 15 15 15 15 16 17 19 20 20 21 22 22 21 21 21 20 18 18 20 19 19 19 21 23 23 23 25 25 23 23 24 25 25 24 27 30 29 29 31 31 32 34 34 34 35 36 37 39 40 42 41 40 39 38 37 36 37 38 38 38
20 20 20 20 20 19 17 16 16 16 14 13 14 14 14 14 13 13 14 14 15 17 18 19 21 21 19 19 19 19 19 20 21 21 20 20 21 23 23 24 25 24 23 23 23 24 25 25 27 29 29 30 32 32 33 35 34 35 37 37 38 40 41 42 42 42 41 40 38 37 37 38 38 38
20 20 19 17 17 17 16 17 20 21 19 16 16 16 15 13 13 15 17 16 16 18 18 18 19 20 21 21 23 24 25 25 21 18 18 17 19 22 23 22 23 23 21 21 22 25 27 26 28 30 30 31 33 33 34 35 35 37 38 38 39 41 42 43 43 42 42 41 40 38 37 38 38 38
20 19 17 16 19 20 19 18 20 23 22 19 17 16 14 13 14 16 16 15 15 17 18 17 17 18 19 21 23 23 23 22 18 14 15 17 18 20 19 18 20 21 20 20 22 26 28 26 27 30 31 31 32 33 35 36 36 36 37 38 40 40 41 42 42 43 43 42 41 39 38 38 38 37
19 19 19 22 24 25 23 23 24 24 22 18 16 15 14 13 15 15 13 12 13 14 15 16 16 17 17 18 18 18 17 17 16 15 17 18 19 20 19 18 20 21 21 21 21 24 27 27 26 28 29 30 32 33 34 34 33 32 34 37 38 37 38 38 39 40 41 42 42 40 38 38 38 37
18 17 18 22 24 22 22 24 25 23 20 17 15 15 14 15 15 13 11 11 11 11 13 14 15 16 17 17 17 17 17 18 18 19 20 20 20 21 22 22 20 17 17 18 20 22 26 27 26 26 24 21 23 27 30 30 30 30 32 35 37 37 37 38 38 38 39 40 40 41 39 38 38 37
17 17 16 17 20 19 17 19 21 21 19 17 15 15 14 14 13 12 10 10 11 11 13 15 16 17 17 17 16 16 15 16 17 18 19 20 20 21 22 22 20 17 17 20 21 23 26 27 27 28 24 19 20 26 31 32 32 32 33 36 38 38 37 37 38 38 39 39 39 40 39 38 39 38
17 16 14 14 16 16 14 14 16 18 17 16 14 14 14 14 14 14 13 11 11 11 13 15 16 16 16 16 15 15 15 16 16 17 18 19 19 19 20 22 22 23 23 23 23 25 27 27 27 29 28 25 27 31 34 35 34 33 34 36 36 35 34 34 33 33 34 36 38 39 40 40 41 41
16 15 14 12 12 13 13 12 13 15 15 16 15 15 15 16 16 17 14 11 10 11 13 14 15 15 16 16 16 17 18 19 19 19 19 19 18 20 21 22 23 25 26 26 26 26 27 27 29 29 28 28 29 30 31 33 35 34 33 34 33 32 33 33 32 30 30 32 36 40 42 41 41 42
16 15 13 11 11 12 12 12 12 14 15 15 14 14 15 15 16 16 14 10 10 11 13 14 15 16 16 17 18 19 20 20 20 19 19 20 21 22 22 23 24 26 28 28 29 28 27 27 31 32 31 29 27 24 24 31 36 35 33 34 34 33 33 33 32 30 29 29 33 37 41 42 42 42
14 14 12 10 11 12 12 12 12 13 13 12 12 13 14 15 14 12 10 9 10 11 13 13 14 16 16 17 18 20 20 21 20 20 20 21 22 23 24 24 24 25 27 29 29 29 27 27 30 33 33 29 23 19 21 29 36 37 36 36 35 32 32 33 31 30 30 28 28 33 40 44 43 41
14 14 13 13 13 13 12 11 10 10 11 12 13 14 13 11 9 7 7 9 10 11 13 13 15 16 17 18 19 20 20 20 20 20 20 21 22 23 23 23 23 24 25 27 27 28 27 27 29 33 33 29 25 27 31 34 38 40 37 33 32 31 32 32 30 30 29 28 27 31 39 45 46 44
17 18 16 14 14 13 10 9 8 9 10 8 8 7 5 5 6 7 8 9 11 12 13 14 16 17 18 19 19 19 18 19 20 21 21 21 21 21 21 22 22 23 24 24 25 26 26 27 29 31 31 29 30 37 41 39 37 38 36 30 28 28 28 29 29 29 27 26 29 31 34 41 47 47
13 15 14 12 11 10 8 7 7 8 7 4 2 2 2 4 7 8 8 9 11 12 13 15 16 18 18 17 16 16 18 19 19 19 20 20 20 21 21 22 22 22 21 22 23 24 25 27 29 31 32 33 35 41 47 42 34 33 33 29 25 23 24 24 25 27 25 23 27 30 29 32 40 46
6 7 7 8 10 10 8 7 6 5 4 4 4 5 6 7 8 8 9 11 10 11 12 15 16 17 16 15 15 16 17 18 17 17 18 18 20 20 20 20 20 20 20 22 23 24 25 26 29 32 36 37 39 46 50 41 30 27 26 25 24 24 23 22 21 23 24 23 26 30 29 29 32 37
7 7 8 10 11 11 10 9 8 7 6 6 7 7 7 8 9 9 10 11 11 12 13 14 14 14 14 14 15 16 17 17 16 16 17 17 18 18 18 19 20 20 21 23 25 26 27 27 30 35 38 38 40 44 39 26 19 19 19 19 21 20 18 21 23 22 22 25 28 28 27 26 28 30
9 10 12 13 12 11 10 9 8 6 6 7 7 7 7 7 9 10 11 12 12 11 11 12 12 12 13 14 15 15 16 16 16 16 16 16 16 17 17 19 20 20 21 24 25 26 27 29 32 38 39 38 37 33 23 15 17 19 18 16 17 15 13 18 21 19 21 26 27 24 22 21 24 27
9 12 13 13 11 9 8 7 6 6 6 7 7 8 8 8 9 10 11 11 9 10 11 12 12 12 13 14 15 15 15 16 16 16 16 15 15 16 16 18 19 19 21 23 24 25 26 27 30 33 33 33 31 24 19 19 19 19 20 19 16 14 15 17 16 14 19 24 21 19 18 19 22 25
11 12 11 10 7 6 7 6 5 6 7 7 8 9 10 10 11 12 11 9 8 10 11 11 11 12 13 13 14 14 15 15 15 15 15 15 15 16 16 17 17 18 21 22 23 24 24 25 27 25 19 17 17 14 17 24 22 17 20 21 18 18 19 17 15 14 18 21 18 16 15 16 20 24
10 9 8 7 5 5 6 6 5 6 8 8 8 9 10 11 12 11 8 8 9 10 10 10 11 12 12 12 13 14 14 14 14 15 15 15 15 15 16 17 17 18 20 22 23 23 23 23 25 23 15 12 11 10 15 26 25 17 18 21 19 17 16 14 14 16 18 21 22 23 20 17 19 24
9 7 6 7 6 5 6 6 6 6 7 8 9 10 10 11 10 8 7 7 8 9 10 11 11 10 11 12 13 13 13 14 14 14 14 14 15 15 16 17 17 18 20 22 22 22 22 22 26 26 19 12 10 10 13 20 23 19 18 23 22 17 13 12 11 14 16 16 19 24 24 20 20 23
7 6 6 6 5 5 5 5 6 7 8 9 9 9 9 8 8 7 7 8 8 9 10 10 10 10 11 11 11 12 13 14 14 14 14 14 15 16 16 17 17 18 20 22 22 20 20 22 25 28 25 19 18 20 21 20 21 20 19 21 25 22 15 12 11 10 11 11 14 18 20 18 18 21
6 6 6 5 3 4 5 6 6 7 8 8 8 7 7 7 7 7 7 7 7 9 10 9 9 9 10 10 11 12 13 13 14 14 15 15 15 16 16 17 17 17 18 20 20 19 19 21 24 29 30 28 28 31 29 22 19 20 20 20 23 24 19 13 10 8 7 8 10 15 15 12 15 19
6 6 5 4 3 4 6 7 7 8 8 8 7 6 5 6 6 7 7 7 7 8 9 8 8 9 10 10 11 12 12 13 14 14 15 15 16 16 17 17 16 16 17 18 18 18 19 21 25 28 29 30 31 29 23 15 13 16 21 23 23 23 23 20 13 7 5 7 10 15 15 12 14 17
6 5 3 4 5 6 6 7 7 8 8 7 6 5 6 6 6 7 8 7 6 7 8 8 8 9 10 10 11 12 13 13 13 14 15 16 16 16 17 16 16 17 18 18 19 20 20 20 24 27 27 28 28 22 13 10 11 15 19 25 27 25 23 23 21 15 8 5 6 9 11 10 10 10
6 5 4 5 6 6 7 7 7 7 7 6 5 6 6 6 6 6 6 6 5 6 7 7 8 9 10 10 11 12 12 12 14 14 15 15 16 16 17 17 16 18 19 19 19 20 19 18 21 24 25 26 26 20 15 16 18 18 19 23 28 28 26 24 24 23 18 12 6 1 3 6 8 10
6 6 6 6 6 7 8 7 7 6 6 6 6 6 6 6 6 5 5 5 5 6 6 7 8 9 9 10 11 12 12 13 14 14 14 15 15 16 16 17 17 18 19 19 18 19 19 18 18 19 21 22 23 22 21 20 19 19 21 24 28 31 29 26 25 27 29 27 19 9 3 2 3 9
6 7 7 6 7 8 8 7 7 6 5 6 6 6 5 6 5 5 5 4 5 6 7 7 8 9 9 11 12 12 13 13 13 14 14 14 15 16 16 16 17 18 18 18 17 17 18 17 16 16 18 20 21 22 24 23 20 20 23 25 27 29 28 26 26 27 31 34 30 21 14 12 10 12
Wind_Direction
247 248 247 250 257 262 263 266 269 266 266 270 274 275 277 282 288 290 292 294 295 293 289 283 276 264 259 269 279 283 286 287 290 292 284 281 281 275 280 288 291 296 305 314 323 329 336 340 338 333 326 316 307 299 294 290 284 275 267 261 257 256 253 251 249 249 250 251 251 250 250 249 248 248
249 250 252 254 258 260 260 265 267 262 258 260 266 270 273 276 279 284 290 290 289 291 292 289 287 283 278 281 285 284 284 289 291 288 281 279 277 275 280 282 280 283 292 301 310 317 324 331 334 333 331 327 318 308 300 293 289 283 275 266 260 257 256 254 250 248 248 249 250 250 250 249 248 248
253 254 255 257 259 260 262 265 265 261 257 260 265 268 269 270 272 277 284 286 283 286 291 292 291 289 288 289 288 284 282 286 288 286 284 282 278 279 285 286 283 283 287 294 302 309 315 322 327 328 330 332 329 322 311 301 294 288 283 276 267 260 257 256 254 251 248 247 248 248 249 249 249 248
256 260 262 262 261 260 261 262 261 258 258 262 267 269 270 270 268 270 275 280 282 284 287 291 292 290 290 290 288 287 287 287 286 283 285 287 286 284 284 285 284 286 289 292 297 303 307 312 317 319 321 327 332 331 326 316 304 295 288 283 276 267 260 256 256 254 251 247 247 247 247 248 249 248
257 261 264 265 264 261 259 259 259 259 260 263 265 267 270 271 269 268 272 277 282 284 285 287 289 291 292 291 289 290 291 291 289 286 286 288 287 284 281 279 279 282 285 289 294 300 303 305 308 308 310 317 324 329 330 328 320 309 296 287 281 276 268 260 255 255 254 250 247 247 247 247 248 247
257 259 260 263 265 264 260 257 258 261 263 265 265 265 268 271 272 269 272 276 280 283 284 284 286 289 291 292 293 295 295 295 294 291 289 288 286 284 284 282 281 280 281 285 291 297 300 301 302 302 302 306 314 321 325 327 326 322 313 299 287 279 274 267 260 254 253 252 250 248 246 247 247 247
260 261 261 263 265 266 263 258 256 259 262 261 261 264 268 271 273 271 270 272 277 282 284 282 282 287 290 291 295 297 295 295 294 290 289 289 288 287 286 285 284 282 282 284 288 294 297 297 297 298 299 300 305 313 318 321 322 322 322 316 302 286 276 271 266 259 254 252 251 249 247 246 246 247
262 263 262 263 263 264 264 260 257 256 257 256 255 260 264 265 268 270 268 267 271 278 283 282 283 286 288 289 292 294 294 294 290 286 287 289 289 288 288 286 285 284 284 286 290 294 297 296 295 298 298 298 300 305 310 314 316 316 318 319 316 303 285 273 268 263 257 253 251 250 248 246 245 245
263 262 261 262 261 260 261 260 258 255 253 254 254 256 259 263 267 269 268 268 269 274 280 284 287 288 288 287 287 290 293 293 290 286 287 289 289 288 288 287 287 288 289 290 291 294 296 295 295 297 297 296 297 298 301 306 310 310 312 314 316 314 300 281 269 265 261 255 251 250 249 247 245 244
262 260 259 258 256 255 257 258 257 255 252 252 254 256 259 264 268 269 270 271 271 272 277 282 286 289 289 288 287 287 288 290 291 290 289 289 287 286 288 288 289 291 291 290 289 289 290 291 290 290 291 293 294 293 294 298 302 306 307 308 311 315 311 296 276 265 262 258 254 250 248 248 246 244
261 259 255 253 250 248 251 254 255 256 254 252 253 255 260 265 269 272 274 276 274 275 278 280 283 286 286 286 285 285 286 286 285 285 287 291 290 288 287 287 288 289 289 290 290 288 288 288 289 289 290 291 291 290 290 292 295 299 301 301 304 309 311 305 289 272 263 259 256 252 248 247 247 245
259 257 253 251 248 247 248 249 251 253 253 254 255 259 264 269 273 276 279 282 281 280 281 282 283 284 284 283 283 284 286 286 285 287 292 293 291 288 286 284 284 285 286 289 291 290 290 290 290 291 290 289 289 289 289 288 288 292 294 296 299 303 304 302 294 282 270 262 259 255 250 247 246 245
256 254 253 252 250 248 245 246 250 254 255 257 260 264 269 272 276 278 280 284 287 286 285 284 285 285 284 283 284 286 288 289 291 294 294 290 288 290 289 286 284 283 286 288 287 287 288 288 288 287 287 286 286 286 285 283 283 285 288 292 296 297 299 298 292 285 275 267 261 258 253 249 246 245
257 254 253 254 252 248 247 250 256 260 260 259 261 265 269 271 273 275 276 280 285 286 287 288 289 288 286 286 288 289 290 292 293 294 293 291 293 295 293 289 287 287 288 288 286 284 285 285 284 282 281 281 282 281 278 277 276 275 279 288 292 294 295 295 291 285 277 269 262 259 255 251 247 244
259 258 257 257 256 252 252 255 259 261 262 263 265 268 270 270 267 265 268 275 282 285 287 289 289 288 286 287 288 289 291 292 293 294 294 294 295 295 294 292 291 292 292 291 289 287 284 282 280 279 279 278 278 277 275 274 274 274 278 285 290 291 292 292 289 285 279 270 262 258 256 253 248 244
260 261 260 261 261 256 253 254 257 262 265 269 273 274 274 273 266 258 258 265 274 281 286 288 286 285 286 287 287 288 291 295 295 295 293 293 293 293 291 291 292 294 295 293 290 287 285 282 280 280 280 280 277 276 276 277 276 276 278 283 287 289 291 290 287 283 279 272 264 257 255 253 249 245
260 262 262 263 263 260 256 255 257 260 261 265 271 274 276 277 271 263 260 262 267 273 276 278 279 280 283 285 286 287 291 294 294 293 292 292 293 292 290 291 292 294 294 291 288 286 285 284 282 282 282 281 278 277 278 280 279 276 277 280 284 287 289 288 283 280 278 273 266 258 253 251 249 246
261 263 263 262 264 264 261 258 257 257 256 258 262 264 267 270 270 267 264 265 270 270 267 267 271 276 279 281 282 284 287 290 292 292 293 294 294 292 290 290 289 286 284 281 280 281 283 284 284 282 282 283 279 276 278 280 279 277 276 279 282 286 288 286 280 277 275 272 266 259 253 250 248 246
261 262 262 264 267 267 264 260 257 254 254 258 258 257 258 260 260 261 261 263 267 266 263 264 269 272 273 274 276 279 284 288 291 292 291 290 289 287 286 284 280 277 275 274 273 276 280 284 284 283 283 283 279 277 280 281 280 278 278 280 282 286 287 284 277 273 272 269 265 260 253 248 246 244
262 263 263 262 263 267 269 264 259 257 257 257 257 256 255 255 260 265 266 267 266 265 269 274 274 271 269 267 269 275 280 284 288 290 289 284 280 279 281 281 279 279 280 279 277 277 280 284 286 285 286 284 280 279 282 282 281 280 279 280 283 286 285 281 275 270 268 266 263 259 252 247 244 242
263 262 257 252 257 266 267 262 261 266 266 260 255 255 254 252 259 265 268 271 273 273 279 286 285 280 278 275 275 277 279 281 283 281 279 278 276 277 281 282 283 286 288 287 284 282 284 288 289 287 286 284 281 281 283 282 281 280 279 281 284 286 283 278 273 268 265 262 260 257 252 245 241 240
266 263 257 258 264 266 262 260 265 269 266 258 253 255 257 258 261 266 269 271 275 278 282 288 290 288 288 289 289 285 283 286 284 270 265 271 276 280 285 289 290 290 289 289 288 285 287 290 289 287 288 285 282 283 284 282 280 279 280 282 285 284 280 276 272 268 264 260 256 253 249 243 238 237
266 264 261 266 271 269 265 266 269 268 261 254 252 255 259 263 265 268 272 274 277 278 279 284 288 287 287 289 288 285 284 289 284 268 259 265 273 281 287 290 291 291 288 291 293 289 290 292 290 289 291 289 286 287 285 282 281 281 282 284 285 283 278 274 271 266 262 259 253 248 243 238 234 234
266 263 261 265 270 273 275 273 269 264 258 254 256 259 262 265 266 269 277 281 281 280 282 286 287 285 284 284 282 280 280 282 279 270 264 269 277 284 288 288 287 287 289 294 297 293 291 292 290 289 290 290 292 294 290 286 285 285 284 285 284 283 278 272 267 263 259 256 250 243 238 232 229 227
269 267 264 264 265 269 276 275 266 261 258 255 256 256 257 259 263 269 278 283 281 280 281 282 282 283 284 283 282 281 281 281 281 280 279 282 284 285 287 289 289 289 289 293 296 292 289 289 287 287 288 288 289 293 293 289 287 286 285 284 282 280 276 271 265 260 255 251 246 239 232 228 225 223
274 274 273 272 265 260 265 271 264 258 258 257 255 254 255 260 264 269 275 280 279 278 277 277 280 283 285 286 286 286 287 288 289 289 289 288 287 284 284 285 287 288 289 292 292 287 285 284 282 283 288 290 290 291 290 289 289 289 286 282 278 276 273 268 263 257 249 242 239 234 228 223 222 220
276 278 277 272 261 256 264 271 264 256 255 254 254 256 260 266 272 276 278 276 270 271 272 274 278 283 285 289 291 292 293 294 293 292 290 288 287 285 283 282 282 283 285 288 288 284 281 281 279 281 286 290 291 288 285 285 289 290 285 280 278 275 271 266 259 253 246 237 232 228 223 220 219 218
278 282 280 267 257 261 270 269 257 248 247 248 253 260 265 271 277 279 273 263 260 264 267 271 277 284 288 292 293 294 295 295 292 289 287 287 286 285 284 284 284 283 283 285 286 284 281 279 279 281 284 285 286 285 283 283 285 286 285 284 280 274 267 263 256 248 242 235 226 218 214 214 215 214
263 268 272 269 266 269 269 261 251 247 250 253 256 262 268 269 269 267 260 257 260 264 270 279 286 289 291 292 292 294 294 291 289 288 288 289 289 288 288 288 287 285 284 284 284 285 283 280 278 281 282 281 279 280 283 284 283 284 283 280 276 270 262 257 251 242 235 230 222 211 204 206 208 207
252 256 261 265 265 263 254 243 242 246 251 259 263 266 268 251 241 246 254 264 274 279 283 288 290 291 293 293 293 293 291 288 289 292 293 294 294 294 296 295 293 290 288 287 287 288 286 283 280 281 283 282 280 281 284 283 281 281 279 272 268 266 259 250 242 236 230 225 221 212 200 199 204 205
250 252 256 256 249 245 243 239 235 234 239 248 246 246 254 249 250 258 264 271 280 285 286 289 291 292 294 293 291 290 290 290 292 294 296 297 298 300 301 298 295 294 293 293 293 292 290 289 287 287 290 290 287 287 289 285 278 277 278 271 261 254 249 242 234 229 225 221 219 212 195 188 197 203
231 236 248 247 230 225 235 239 221 207 211 226 238 247 252 252 256 268 275 274 273 274 280 287 291 293 292 290 290 292 292 293 295 297 298 298 299 301 300 297 296 298 300 301 300 297 297 297 296 297 298 297 295 295 294 287 274 266 266 262 253 247 244 240 231 223 219 217 217 212 197 183 187 196
236 236 240 240 230 227 233 233 218 200 204 231 248 249 252 263 269 270 274 279 280 280 284 286 288 290 291 291 294 295 295 297 299 301 301 300 298 299 298 298 300 303 305 306 305 305 306 307 308 308 306 304 303 299 297 296 291 280 271 261 254 248 243 243 240 227 214 214 217 211 197 184 183 188
239 244 245 246 244 242 242 239 232 222 224 243 253 238 232 261 281 280 279 285 288 288 287 285 286 290 292 294 296 297 299 301 303 303 302 299 299 299 300 303 306 307 308 308 308 311 313 313 315 316 315 317 317 311 310 332 339 325 315 298 277 265 255 252 247 228 209 211 210 201 191 185 184 186
241 249 252 255 256 253 251 251 250 251 250 256 264 260 256 268 282 284 284 288 291 292 290 287 289 293 294 296 299 300 302 304 304 305 305 303 303 303 303 306 309 310 312 311 310 313 317 317 318 320 321 325 328 325 329 342 347 345 341 328 311 303 289 267 252 232 219 215 199 180 182 188 187 187
248 253 257 263 264 261 266 267 261 264 268 265 266 273 278 283 286 287 290 295 295 292 290 291 295 297 296 298 300 300 302 304 305 307 309 309 310 309 307 309 311 313 314 313 312 315 317 317 320 322 323 326 328 326 332 335 339 352 354 340 325 320 309 284 263 247 232 220 199 178 181 191 191 190
252 256 261 269 265 257 266 267 254 258 270 272 273 277 280 286 289 289 290 291 286 284 287 291 295 297 298 301 301 301 303 306 308 311 312 313 314 314 312 313 316 317 318 316 316 318 318 318 323 325 324 324 321 316 327 331 330 340 358 354 339 325 319 305 275 247 226 215 205 191 185 190 192 189
261 259 258 265 264 259 265 265 261 263 265 267 274 279 281 285 287 284 280 280 282 289 296 296 296 300 303 303 302 304 307 310 311 313 314 316 319 318 315 317 319 320 320 318 318 320 320 320 325 329 329 327 324 321 328 331 327 327 345 359 355 342 337 334 297 245 217 213 210 195 189 196 197 189
263 261 258 260 256 255 262 265 266 268 265 267 276 281 282 285 284 281 281 284 289 299 301 298 300 304 302 301 303 306 309 311 313 315 317 320 321 319 317 318 319 320 322 321 320 322 324 323 328 332 332 326 323 323 321 319 322 328 342 360 5 3 1 351 320 264 220 214 211 200 196 198 192 185
255 258 262 262 248 246 259 263 262 263 268 275 279 281 285 289 286 284 288 294 300 301 297 296 301 302 300 303 308 309 311 313 314 316 319 320 320 320 318 317 316 318 323 324 322 322 324 326 330 334 333 328 327 329 328 325 333 347 356 2 5 8 14 9 339 295 252 231 215 206 204 187 162 164
252 250 252 255 250 247 252 257 263 270 276 276 272 271 277 281 282 287 293 295 296 296 294 296 301 302 302 308 310 311 313 315 315 318 321 320 320 320 318 315 316 322 325 324 323 322 321 323 331 337 339 340 341 342 341 342 346 352 358 4 7 12 20 24 22 10 320 281 233 208 198 173 149 157
252 252 241 244 254 257 259 263 268 273 275 271 270 275 276 268 269 281 287 282 278 284 292 298 304 305 307 311 313 314 314 314 316 320 321 320 322 322 321 320 323 326 325 323 324 324 319 319 330 339 344 347 348 347 342 340 342 346 357 6 10 14 21 29 38 46 33 330 259 210 190 172 159 163
248 252 245 248 256 261 265 266 267 269 272 271 269 274 275 269 267 276 282 279 279 288 299 306 309 311 312 314 315 315 314 316 321 321 319 320 323 323 322 324 324 324 326 326 325 327 326 324 330 339 344 347 347 345 336 335 343 351 359 5 9 14 21 29 40 52 62 62 51 12 215 198 189 183
252 253 248 246 252 256 259 261 263 265 269 270 263 260 265 269 271 275 279 283 290 299 306 310 311 313 316 317 317 317 318 319 320 318 317 322 325 322 323 325 325 326 330 331 329 332 336 333 332 338 344 345 345 344 339 337 343 354 0 5 11 15 17 21 32 45 54 55 54 53 44 47 148 169
250 258 258 251 250 254 257 259 262 261 260 263 260 255 258 265 270 273 273 278 294 304 307 310 314 317 319 319 317 317 318 319 318 318 321 325 326 326 327 328 328 331 334 332 331 335 337 336 336 339 340 342 347 349 345 343 349 359 4 6 9 12 14 19 27 38 45 46 47 55 65 67 89 122